Regional Weather Roundup
Issued by NWS Wakefield, VA

Home | Current Version | Previous Version | Graphics & Text | Print | Product List | Glossary On
Versions: 1 2 3 4 5 6 7 8 9 10 11 12 13 14 15 16 17 18 19 20 21 22 23 24 25 26
000
ASUS41 KAKQ 110215
RWRAKQ

REGIONAL WEATHER ROUNDUP
NATIONAL WEATHER SERVICE WAKEFIELD VA
900 PM EST SUN DEC 10 2017

Note: "fair" indicates few or no clouds below 12,000 feet with no
significant weather and/or obstructions to visibility. * = Denotes
station may not report precipitation (e.g., rain,snow,etc.),
thunder or fog.

VAZ042-051-052>054-056-110300-
NORTHERN VIRGINIA

CITY           SKY/WX    TMP DP  RH WIND       PRES   REMARKS
WASH NATIONAL  CLOUDY    37  28  70 S8        30.07F
DULLES         CLOUDY    34  26  72 S7        30.05S
FORT BELVOIR   CLOUDY    35  28  75 CALM      30.06F
QUANTICO       CLOUDY    38  28  67 SW10      30.09S
FREDERICKSBRG* MOCLDY    35  28  76 S7        30.07S
STAFFORD*      CLOUDY    33  26  75 S5        30.11S
WARRENTON      CLOUDY    37  20  52 S5        30.04F
CULPEPER*      CLOUDY    37  22  54 CALM      30.06S
MANASSAS*      CLOUDY    33  24  69 CALM      30.06F
LEESBURG*      CLOUDY    36  27  69 S3        30.04F
WINCHESTER     CLOUDY    32  21  64 CALM      30.02S
FRONT ROYAL*   CLOUDY    34  21  60 S5        30.01F
LURAY*         CLOUDY    34  23  64 SW5       30.02S
$$

VAZ048-049-060>072-079>083-110300-
CENTRAL AND SOUTH CENTRAL VIRGINIA

CITY           SKY/WX    TMP DP  RH WIND       PRES   REMARKS
RICHMOND       PTCLDY    31  26  82 S8        30.11S
CHESTERFIELD*  NOT AVBL
PETERSBURG*    PTCLDY    30  27  86 CALM      30.13S
HANOVER        CLOUDY    34  26  72 S7        30.11S
TAPPAHANNOCK*    N/A    N/A N/A N/A MISG        N/A
QUINTON*       FAIR      30  30 100 CALM      30.12S
CHARLOTTSVILLE CLOUDY    38  20  48 SW6       30.04F
GORDONSVILLE*  CLOUDY    34  23  65 SW5       30.05F
ORANGE*        CLOUDY    34  23  64 CALM      30.05F
LOUISA*        CLOUDY    34  23  64 SW7       30.11S
BUMPASS*       CLOUDY    32  25  74 S7        30.08S
FARMVILLE*     CLOUDY    33  30  90 S5        30.08S
CREWE*         CLOUDY    31  29  92 CALM      30.10S
FORT PICKETT*  NOT AVBL
CHASE CITY*    FAIR      31  28  89 CALM      30.12S
CLARKSVILLE*   FAIR      30  30 100 S3        30.12S
SOUTH HILL*    CLEAR     29  28  93 S3        30.19R
LAWRENCEVILLE* MOCLDY    30  26  85 CALM      30.13S
EMPORIA*       CLEAR     28  27  93 CALM      30.17R
$$

VAZ088>098-110300-
SOUTHEAST VIRGINIA

CITY           SKY/WX    TMP DP  RH WIND       PRES   REMARKS
NORFOLK        CLEAR     33  27  78 S6        30.14F
VIRGINIA BEACH CLEAR     34  25  69 CALM      30.15S
NORFOLK NAVAL  CLEAR     36  27  69 SW5       30.16S
WEST POINT*    CLEAR    N/A N/A N/A SW6       30.15R
SALUDA*        FAIR      32  28  85 SW6       30.12S
NEWPORT NEWS   CLEAR     36  27  69 SW9       30.14S
LANGLEY AFB    CLEAR     35  28  75 SW6       30.13S
FORT EUSTIS    PTCLDY    37  28  70 SW6       30.11S
WILLIAMSBURG*  CLEAR     36  28  75 SW3       30.15R
HR EXEC AP*    FAIR      25  22  88 CALM      30.16S
FRANKLIN*      CLEAR     28  26  91 CALM      30.16S
US460-WAKEFLD  CLEAR     30  27  88 SW3       30.15R
$$

VAZ020-022-025-037-045-110300-
WEST CENTRAL AND SOUTHWEST VIRGINIA

CITY           SKY/WX    TMP DP  RH WIND       PRES   REMARKS
STAUNTON*      CLOUDY    33  19  57 S5        30.03F
WAYNESBORO*    CLOUDY    33  18  54 SW6       30.01F
HOT SPRINGS VA CLOUDY    27  12  53 W20       29.92S WCI  14
LYNCHBURG      CLOUDY    33  23  66 CALM      30.07S
DANVILLE       PTCLDY    29  24  82 SW3       30.12S
SOUTH BOSTON*  FAIR      32  24  73 CALM      30.13R
MARTINSVILLE   CLEAR     26  23  89 CALM      30.12S
ROANOKE        MOCLDY    36  18  48 SW10      30.08R
BLACKSBURG     CLOUDY    32  19  59 W7        30.07S
DUBLIN*        PTCLDY    31  20  64 SW9       30.06R
MARION*        CLEAR     30  16  55 W17G23    30.05F WCI  18
HILLSVILLE*    CLEAR     29   8  40 CALM      30.03R
RICHLANDS*     FAIR      31  15  52 SW10G18   30.05S WCI  22
WISE*          CLEAR     32  21  64 SW13G18   30.07R WCI  22
ABINGDON*      CLEAR     31  19  60 SW5       30.10S
$$

MDZ021>025-VAZ099-100-110300-
SOUTHERN MARYLAND AND THE DELMARVA PENINSULA

CITY           SKY/WX    TMP DP  RH WIND       PRES   REMARKS
PATUXENT RIVER MOCLDY    36  28  73 SW8       30.09F
BAY BRIDGE APT CLOUDY    39  30  70 SW7       30.07S
LEONARDTOWN    PTCLDY    34  28  80 SW8       30.10F
DOVER          CLEAR     30  29  94 S7        30.07S
GEORGETOWN     CLEAR     31  25  78 SW6       30.09F
EASTON         CLEAR     36  30  80 SW7       30.11S
CAMBRIDGE      CLEAR     28  27  93 CALM      30.09S
SALISBURY      PTCLDY    29  27  92 S5        30.10F
OCEAN CITY     CLEAR     32  27  81 SW7       30.11F
WALLOPS ISLAND CLEAR     30  27  88 SW6       30.12F
ACCOMACK*      CLEAR     34  28  79 SW7       30.13S
$$

NCZ012>017-030>032-110300-
NORTH CENTRAL AND EASTERN NORTH CAROLINA

CITY           SKY/WX    TMP DP  RH WIND       PRES   REMARKS
ROANOKE RAPIDS FAIR      28  28 100 CALM      30.16R
RALEIGH        PTCLDY    31  25  78 SW6       30.15S
ELIZABETH CITY CLEAR     33  29  85 SW6       30.17S
AHOSKIE*       CLEAR     28  28  98 CALM      30.17S
EDENTON*       CLEAR     41  31  67 SW5       30.18S
CURRITUCK*     CLEAR     34  30  86 S3        30.17S
KILL DEVIL HLS CLEAR     39  28  64 CALM      30.16R
MANTEO         CLEAR     39  30  69 W9        30.18S
CAPE HATTERAS  CLEAR     41  31  67 W5        30.19S
TARBORO*       NOT AVBL
GOLDSBORO      CLEAR     35  26  71 S3        30.17R
WASHINGTON     CLEAR     34  27  76 S3        30.19S
GREENVILLE     CLEAR     32  30  93 CALM      30.19R
NEW BERN       CLEAR     30  29  96 S3        30.20F
WILMINGTON     CLEAR     33  30  88 CALM      30.21S
$$

VAZ048-110300-
ELSEWHERE

CITY           SKY/WX    TMP DP  RH WIND       PRES   REMARKS
HARRISBURG PA  CLOUDY    36  20  52 W7        30.01S
BALTIMORE      MOCLDY    33  24  69 S5        30.05S
ANNAPOLIS      CLOUDY    37  28  70 VRB5      30.06S
ANDREWS AFB    CLOUDY    35  27  73 S7        30.04F
PHILADELPHIA   CLOUDY    36  24  62 S9        30.05S
HENDERSON NC   CLEAR     26  23  86 CALM      30.13R
GREENSBORO     CLEAR     30  24  78 SW5       30.11S
ROCKY MOUNT    CLEAR     29  28  96 S3        30.16S
$$

VAZ100-110300-
MARINE

STATION/POSITION TIME  TEMP    WIND        PRES    WAVE   SWELL
                       AIR SEA DIR/SP/G            HT/PER HT/PER
                 (UTC) (F)     (DEG/KT/KT) (MB)    (FT/S) (FT/S)
BRANDYWINE LGT   0142   38     240/ 20/ 23 1018.8F
CAPE MAY NJ      0142   38 42  240/ 18/ 20 1018.1F
LEWES DE         0142   33 45  220/  4/  6 1018.8F
15NM E FENWICK I 0150   41 54  240/ 16/ 19 1019.6F   3/ 8   2/ 8
OCEAN-CITY-INLET 0142   36 45  260/  7/  9 1019.9F
WACHAPREAGUE VA  0142   33 42  230/  3/  4 1020.3R
THOMAS POINT MD  0200   39 47  210/ 19/ 20   N/A
GOOSES REEF MD   0200   39 48  210/ 16/ 17 1018.8    1/ 2
COVE POINT MD    0142   36     220/  9/ 14 1019.5F
SOLOMONS ISLAND  0142   38 49  220/ 11/ 14 1018.7S
BISHOPS HEAD MD  0142   40 39  220/ 16/ 20 1019.2F
PINEY POINT MD   0142          240/  8/ 12   N/A
POTOMAC MD       0200   38 49  220/ 16/ 19 1018.5    1/ 2
CAMBRIDGE MD     0142   34 45              1019.6R
LEWISETTA VA     0142   36 44  230/  9/ 10 1019.4F
RAPPAHANNOCK LGT 0142          240/ 17/ 20 1020.6S
STINGRAY PT      0200   39 49  260/ 12/ 16 1020.1    1/ 2
YORK RVR RNG VA  0142   39     240/  9/ 11 1020.8S
YORKTOWN VA      0142   37 51  230/  5/  6 1020.2R
JAMESTOWN VA     0200      48  230/ 10/ 12   N/A
DOMINION TERM VA 0136   39     240/  8/ 10 1020.8F
KIPTOPEKE VA     0142      49  270/ 14/ 17   N/A
CAPE HENRY VA    0142   36     200/  4/  5   N/A
WILLOUBY STN VA  0142   39     240/ 12/ 15 1020.2F
S CRANEY ISL VA  0142   37     220/  5/  6 1020.6F
CAPE HENRY BUOY  0200      56                N/A     3/ 9
1ST LANDING BUOY 0200   40 51  260/ 12/ 16 1020.6    1/ 2
CAPE CHARLES BUO 0151      54                N/A     3/ 9
64NM E OF VA BCH 0150   45 60  250/ 16/ 21 1021.0R   4/ 9   3/ 9
DUCK PIER NC     0142   41 53  270/ 10/ 12 1021.1R
44056 DUCK FRF   0200      54                N/A     2/ 8   2/11
OREGON INLET NC  0142   42 49  240/ 13/ 15 1021.8R
HATTERAS NC      0142   43 53  250/  6/ 11 1022.0S
DIAMOND SHLS NC  0200   47 75  280/ 14/ 17 1022.3
CAPE LOOKOUT NC  0200          260/  8/ 10 1022.7F
$$




USA.gov is the U.S. government's official web portal to all federal, state and local government web resources and services.